Regional Weather Roundup
Issued by NWS

Home | Current Version | Previous Version | Text Only | Print | Product List | Glossary Off
Versions: 1 2 3 4 5 6 7 8 9 10 11 12 13 14 15 16 17 18 19 20 21 22 23 24 25 26 27

000
ASUS45 KTFX 240310
RWRMT
MONTANA REGIONAL WEATHER ROUNDUP
NATIONAL WEATHER SERVICE GREAT FALLS MT
900 PM MDT SAT JUL 23 2016

NOTE: "FAIR" INDICATES FEW OR NO CLOUDS BELOW 12000 FEET WITH NO
SIGNIFICANT WEATHER AND/OR OBSTRUCTIONS TO VISIBILITY.

MTZ001>007-043-240400-
WEST OF THE DIVIDE

CITY           SKY/WX    TMP DP  RH WIND       PRES   REMARKS
KALISPELL      CLEAR     69  45  41 N8        30.07R
MISSOULA       CLEAR     72  40  31 NW9       30.10R
BUTTE          CLOUDY    68  35  29 N13       30.17R
MULLAN PASS    CLEAR     54  42  64 VRB5      30.25S
ANACONDA         N/A     66  32  28 W7        30.14S
DEER LODGE       N/A     64  39  39 NW8       30.16R
EUREKA           N/A     73  45  35 SW8       30.07S
HAMILTON         N/A     73  45  35 CALM      30.10R
LIBBY            N/A     72  43  35 CALM      30.11R
RONAN            N/A     70  44  38 W1        30.14R
THOMPSON FALLS   N/A     73  44  35 W3        30.13R
$$

MTZ008-052>055-240400-
SOUTHWEST MONTANA

CITY           SKY/WX    TMP DP  RH WIND       PRES   REMARKS
BOZEMAN        CLOUDY    66  43  43 NW8       30.10R
DILLON         CLOUDY    68  38  33 NE12      30.12R
W YELLOWSTONE  CLOUDY    57  37  47 CALM      30.24R
ENNIS          CLOUDY    72  37  28 S20G26    30.20R
THREE FORKS      N/A     72 -35   1 NE2       30.08R
TWIN BRIDGES     N/A     74  35  24 N13       30.09R
$$

MTZ009-010-012-014-046-048-049-054-240400-
EAST SLOPES AND CENTRAL MONTANA

CITY           SKY/WX    TMP DP  RH WIND       PRES   REMARKS
CUT BANK       CLEAR     68  41  37 W14       30.05R
GREAT FALLS    CLOUDY    73  37  27 N6        30.04R
MALMSTROM AFB  PTCLDY    74  38  27 N6        30.03R
HELENA         CLEAR     74  35  24 NW8       30.09R
CHOTEAU          N/A     70  36  28 NW10      30.08S
$$

MTZ011-013-016-021-045-047-050-051-240400-
NORTH CENTRAL MONTANA

CITY           SKY/WX    TMP DP  RH WIND       PRES   REMARKS
HAVRE          LGT RAIN  74  51  44 W3        29.97S
LEWISTOWN      PTCLDY    69  49  48 CALM      30.07S
N BAR RANCH      N/A     66  45  45 NW5       30.11S
CHINOOK          N/A     73  52  46 CALM      29.97R
$$

MTZ017>020-022>027-061-062-240400-
NORTHEAST MONTANA

CITY           SKY/WX    TMP DP  RH WIND       PRES   REMARKS
GLASGOW        CLEAR     68  50  52 VRB7      29.96S
JORDAN           N/A     71  50  47 NE6       30.00R
SIDNEY         CLEAR     70  52  52 NW9       29.96R
WOLF POINT     CLEAR     70  50  49 CALM      29.97R
PLENTYWOOD       N/A     63  55  77 W3        29.94R
POPLAR           N/A     66  52  59 CALM      29.97R
$$

MTZ028>42-056>058-240400-
SOUTHCENTRAL AND SOUTHEAST MONTANA

CITY           SKY/WX    TMP DP  RH WIND       PRES   REMARKS
BAKER          CLEAR     70  50  49 NW8       30.00R
BILLINGS       MOCLDY    76  43  30 NE10      30.05R
LIVINGSTON     CLOUDY    72  36  26 NW7       30.10R
MILES CITY     CLEAR     75  44  33 NW6       29.99R
FORSYTH          N/A     77  45  31 CALM      30.00R
LAUREL           N/A     76  40  27 N2        30.04R
ROUNDUP          N/A     71  43  36 CALM      29.98R
$$

REGIONAL REPORTS...DAKOTAS

CITY           SKY/WX    TMP DP  RH WIND       PRES   REMARKS
WILLISTON      CLEAR     68  56  65 NW8       29.92R
MINOT          CLEAR     72  57  59 W15       29.82R
DICKINSON      CLEAR     67  51  56 NW8       29.94R
CROSBY           N/A     64  61  88 W12       29.91R
WATFORD CITY     N/A    N/A N/A N/A MISG        N/A
BISMARCK       CLEAR     77  54  44 NW12      29.86R
GRAND FORKS    PTCLDY    68  66  93 SW6       29.70S
FARGO          CLOUDY    77  73  87 NW5       29.73R
BUFFALO SD       N/A     74  42  31 N13       29.93R
RAPID CITY     CLEAR     70  43  37 N8        29.99R
$$

REGIONAL REPORTS...WYOMING/IDAHO/WASHINGTON

CITY           SKY/WX    TMP DP  RH WIND       PRES   REMARKS
GILLETTE       CLEAR     68  36  30 N6        30.06R
SHERIDAN       CLEAR     69  39  33 N7        30.05R
BUFFALO WY     CLEAR     72  38  29 NW9       30.12R
CODY           CLOUDY    73  32  21 NW9       30.11R
YELLOWSTONE LA   N/A     58  33  39 VRB6      30.33R
IDAHO FALLS    CLEAR     74  35  24 S10       30.08R
SALMON         CLEAR     73  37  27 N9        30.04R
BOISE          CLEAR     81  31  16 NW8       30.03S
SPOKANE        PTCLDY    76  40  27 N8        30.10S
$$

REGIONAL REPORTS...ALBERTA

CITY           SKY/WX    TMP DP  RH WIND       PRES   REMARKS
EDMONTON       PTCLDY    66  52  59 W3        29.92R
CALGARY        PTCLDY    72  39  30 W10G21    29.99R
LETHBRIDGE     PTCLDY    70  45  40 W18G24    29.98S
MEDICINE HAT   PTCLDY    68  57  68 E12       29.95R
WATERTON GATE    N/A     63  43  48 SW9         N/A
CARDSTON         N/A     66  45  45 W8          N/A
MILK RIVER       N/A     68  46  45 W7          N/A
$$

REGIONAL REPORTS...SASKATCHEWAN

CITY           SKY/WX    TMP DP  RH WIND       PRES   REMARKS
SWIFT CURRENT  PTCLDY    59  55  88 W6        29.96S
REGINA         PTCLDY    64  57  77 W12       29.87R
SASKATOON      PTCLDY    64  52  63 W10       29.87R
CYPRESS HILLS    N/A     57  50  77 NE3         N/A
VAL MARIE        N/A     63  54  72 N3          N/A
ROCKGLEN         N/A     64  52  63 NW8         N/A
ASSINIBOIA       N/A     66  54  63 W5          N/A
$$




USA.gov is the U.S. government's official web portal to all federal, state and local government web resources and services.